www.pogodaiklimat.ru

Погода и климат >> Архив погоды >> Украина >> Новомиргород


ПОГОДА в Новомиргороде

  • Прогноз погоды в Новомиргороде
  • Монитор погоды в Новомиргороде

АРХИВ ПОГОДЫ в Новомиргороде

Время (UTC), дата Ветер
(напр.,м/с)
 
Видим.   Явления Облачность Т
(С)
Тd
(С)
f
(%)
Тe
(С)
Тes
(С)
Комфортность P
(гПа)
Po
(гПа)
Тmin
(С)
Tmax
(С)
R
(мм)
R24
(мм)
S
(см)
15 18.06 С 2 10 км 8/8 960 м
[Cu med, cong]
+28.3 +17.2 51 +32 +33 душно 1014.1 997.5
18 18.06 СЗ 1 10 км 4/0
[Ci sp]
+24.5 +17.5 65 +29 +29 душно 1014.3 997.4 +29.5
21 18.06 СЗ 1 10 км 4/0
[Ci sp]
+20.2 +16.4 79 +24 +24 комфорт 1016.0 998.9
00 19.06 СЗ 1 10 км ясно +18.6 +16.2 86 +21 +21 комфорт 1013.0 996.0
03 19.06 СЗ 1 10 км ясно +18.4 +16.2 87 +20 +21 1015.7 998.5
06 19.06 СЗ 1 10 км 3/0
[Ci fib]
+23.3 +18.0 72 +29 +38 душно 1015.5 998.6 +18.4
09 19.06 С 2 10 км 6/6 1000 м
[Cu med, cong]
+26.8 +17.6 57 +31 +38 душно 1015.3 998.6
12 19.06 С 2 10 км 5/5 1000 м
[Cu med, cong]
+27.9 +16.8 51 +32 +39 душно 1012.5 996.0
15 19.06 СВ 2 10 км 4/4 1000 м
[Cu med, cong]
+27.9 +17.4 53 +32 +35 душно 1013.6 996.9
18 19.06 СВ 2 10 км ясно +25.1 +18.0 65 +29 +29 душно 1013.7 996.9 +28.5
21 19.06 СЗ 2 10 км ясно +19.4 +15.5 78 +22 +22 комфорт 1014.5 997.3
00 20.06 СЗ 1 10 км ясно +18.8 +15.8 83 +21 +21 комфорт 1011.7 994.7
03 20.06 штиль 0 10 км 4/4 600 м
[Cu med, cong]
+18.8 +15.8 83 +20 +20 1014.4 997.2
06 20.06 СВ 1 10 км 3/3 600 м
[Cu med, cong]
+24.1 +18.3 70 +29 +35 душно 1014.1 997.2 +18.8
09 20.06 В 2 10 км 6/6 600 м
[Cu med, cong]
+28.7 +16.9 49 +32 +39 душно 1013.7 997.1
12 20.06 В 2 10 км 8/8 870 м
[Cu med, cong]
+30.3 +16.6 44 +34 +37 очень
душно
1013.2 993.4
15 20.06 СВ 2 10 км ясно +29.5 +16.6 46 +33 +37 душно 1013.0 996.4
18 20.06 С 1 10 км ясно +24.3 +18.2 69 +29 +29 душно 1013.0 996.1 +30.7
21 20.06 штиль 0 10 км ясно +19.2 +16.6 85 +21 +21 комфорт 1014.5 997.3
00 21.06 СВ 1 10 км 4/0
[Ac trans]
+18.3 +15.2 82 +20 +20 1011.7 994.7
03 21.06 СВ 1 10 км 8/5 600 м
[Cu med, cong Ci fib]
+17.6 +14.9 84 +19 +19 1015.7 998.4
06 21.06 В 1 10 км 3/1 600 м
[Cu med, cong Ci fib]
+26.0 +16.2 55 +29 +38 душно 1015.5 998.7 +17.3
09 21.06 В 3 10 км 3/0
[Ci fib]
+29.5 +12.8 36 +31 +44 жарко 1015.4 998.8
12 21.06 В 2 10 км н/о +29.7 +13.4 37 +31 +45 жарко 1012.4 996.0
15 21.06 штиль 0 10 км 4/4 600 м
[Cu hum]
+29.7 +14.6 40 +32 +35 душно 1014.1 997.5
18 21.06 штиль 0 10 км 3/3 600 м
[Cu hum]
+25.5 +16.6 58 +29 +29 душно 1014.6 997.8 +31.0
21 21.06 штиль 0 10 км ясно +19.5 +16.0 80 +21 +21 комфорт 1015.6 998.4
00 22.06 штиль 0 10 км ясно +17.4 +14.7 84 +17 +17 1013.1 996.0
03 22.06 штиль 0 10 км ясно +17.6 +15.0 85 +18 +18 1015.8 998.5
06 22.06 штиль 0 10 км ясно +26.5 +18.4 61 +31 +43 душно 1015.4 998.6 +17.0
09 22.06 СВ 1 10 км ясно +31.8 +14.9 36 +34 +54 опасность
солнечного
удара
1015.3 998.8
12 22.06 СЗ 2 10 км 6/6 600 м
[Cb calv]
+32.3 +14.4 34 +34 +40 душно 1012.3 996.0
15 22.06 ЮВ 2 10 км 6/6 600 м
[Cb cap]
+30.3 +15.2 40 +33 +34 душно 1013.9 997.4
18 22.06 СВ 2 10 км 8/8 870 м
[Sc]
+25.7 +16.3 56 +29 +29 душно 1014.6 997.8 +33.4
21 22.06 В 1 10 км ясно +20.0 +15.2 74 +23 +23 комфорт 1015.3 998.2
00 23.06 штиль 0 10 км 4/0
[Ci fib]
+18.9 +14.6 76 +20 +20 1011.7 994.7
03 23.06 штиль 0 10 км 6/0
[Ac trans Ci fib]
+19.0 +15.5 80 +20 +21 1015.9 998.7
06 23.06 ЮВ 1 10 км 8/0
[Ac trans Ci fib]
+22.4 +18.0 76 +27 +33 душно 1016.0 999.0 +18.5
09 23.06 ЮЗ 1 10 км 9/0
[Ac As]
+27.9 +18.0 55 +32 +40 душно 1015.5 998.8
12 23.06 ЮВ 1 10 км 9/0
[Ac trans Ci fib]
+30.9 +14.9 38 +33 +35 душно 1012.3 996.0
15 23.06 В 2 10 км 8/0
[Ac trans]
+30.0 +15.3 41 +33 +35 душно 1013.4 996.9
18 23.06 В 2 10 км 10/8 720 м
[Sc Ac trans Ci sp]
+25.5 +15.2 53 +28 +28 жарко 1014.4 997.6 +31.4
21 23.06 В 2 10 км 3/3 600 м
[Sc]
+22.6 +14.9 62 +26 +26 жарко 1016.1 999.1
00 24.06 СВ 1 10 км {ливн. осадки} 4/4 600 м
[Sc]
+19.2 +15.5 79 +22 +22 комфорт 1013.0 996.0
03 24.06 штиль 0 10 км 8/8 720 м
[Sc]
+20.8 +14.3 66 +23 +23 комфорт 1016.5 999.4
06 24.06 СВ 2 10 км 9/9 800 м
[Sc]
+24.3 +18.0 68 +29 +29 душно 1016.9 1000.0 +19.2 0.0
09 24.06 СЗ 3 10 км 7 баллов +27.4 +17.5 55
12 24.06 СЗ 2 10 км 9/9 800 м
[Sc]
+28.1 +18.2 55 +33 +34 очень
душно
1015.2 998.7
15 24.06 СВ 2 10 км в посл. час гроза 8/8 630 м
[Cb cap]
+27.1 +18.0 58 +32 +33 очень
душно
1017.1 1000.3
18 24.06 С 2 10 км {гроза} 9/3 1000 м
[Sc Ac trans]
+24.5 +19.1 72 +29 +29 душно 1018.5 1001.6 +28.9
21 24.06 С 3 10 км ясно +22.6 +18.6 78
00 25.06 С 2 10 км ясно +22.3 +18.5 79 +28 +28 душно 1016.9 1000.0
03 25.06 С 2 10 км 4 балла +21.0 +17.6 81
06 25.06 С 3 10 км 4 балла +24.2 +18.6 71 +21.0
09 25.06 С 4 10 км 8/8 1080 м
[Cu med, cong]
+26.9 +18.2 59 +32 +34 очень
душно
1022.7 1005.8
12 25.06 С 4 10 км 5 баллов +27.9 +16.8 51 +32 +37 душно 1019.3 1002.7

 

Местоположение метеостанции Новомиргород (Кировоградская область, Украина): широта 48.78 долгота 31.63 высота над уровнем моря 146 м.

В архиве по умолчанию представлена погода в Новомиргороде за последнюю неделю. Архивные данные за месяц целиком и за предыдущие месяцы, начиная с января 2011 года, Вы можете получить, выбрав интересующий диапазон дат из раскрывающегося списка и нажав кнопку "Ввод!".


*Определитесь, кто Вы:
робот инопланетянин человек

Внимание! Время в таблицах - всемирное. Для получения местного времени необходимо прибавить поправку, которая равна 2 ч.

Смотрите также архив погоды в соседних городах и на ближайших метеорологических станциях:

Погода в Ротмистровке (Черкасская область, Украина) (39 км)
Погода в Кропивницком (Кировоградская область, Украина) (51 км)
Погода в Звенигородке (Черкасская область, Украина) (63 км)
Погода в Помошной (Кировоградская область, Украина) (63 км)
Погода в Знаменке (Кировоградская область, Украина) (77 км)
Погода в Черкассах (Черкасская область, Украина) (77 км)
Погода в Чигирине (Черкасская область, Украина) (83 км)
Погода в Бобринце (Кировоградская область, Украина) (88 км)
Погода в Первомайске (Николаевская область, Украина) (100 км)
Погода в Умани (Черкасская область, Украина) (103 км)

Пояснения к столбцам:

Ветер - указаны скорость ветра в м/с - средняя за 10 мин, порывы в срок и между сроками (в фигурных скобках) и направление, откуда дует ветер: С - северный, СВ - северо-восточный, В - восточный, ЮВ - юго-восточный, Ю - южный, ЮЗ - юго-западный, З - западный, СЗ - северо-западный.
Видимость - горизонтальная дальность видимости в метрах или километрах. При видимости от 1 до 10 км при отсутствии осадков обычно наблюдается дымка, при ухудшении видимости до 1 км и менее - туман. В сухую погоду видимость может ухудшаться дымом, пылью или мглою.
Явления - указаны атмосферные явления, наблюдавшиеся в срок или в последний час перед сроком; фигурными скобками обозначены явления, наблюдавшиеся между сроками (за 1-3 часа до срока); квадратными скобками обозначены град или гололедные отложения с указанием их диаметра в мм.
Облачность - указаны через наклонную черту общая и нижняя облачность в баллах и высота нижней границы облаков в метрах; квадратными скобками обозначены формы облаков: Ci - перистые, Cs - перисто-слоистые, Cc - перисто-кучевые, Ac - высококучевые, As - высокослоистые, Sc - слоисто-кучевые, Ns - слоисто-дождевые, Cu - кучевые, Cb - кучево-дождевые. Подробнее классификацию облаков см. в Атласе облаков (PDF).
T - Температура воздуха - температура, измеренная на высоте 2 м над землей.
Td - Температура точки росы - температура, при понижении до которой содержащийся в воздухе водяной пар достигнет насыщения.
f - Относительная влажность воздуха - влажноcть воздуха, измеренная на высоте 2 м над землей.
Te - Эффективная температура - температура, которую ощущает одетый по сезону человек в тени. Характеристика душности погоды. При расчете учитывается влияние влажности воздуха и скорости ветра на теплоощущения человека.
Tes - Эффективная температура на солнце - температура, которую ощущает человек, с поправкой на солнечный нагрев. Характеристика знойности погоды. Зависит от высоты солнца над горизонтом, облачности и скорости ветра. Ночью, в пасмурную погоду, а также при ветре 12 м/с и более поправка равна нулю.
P - Атмосферное давление - приведенное к уровню моря атмосферное давление.
Po - Атмосферное давление - измеренное на уровне метеостанции атмосферное давление.
Tmin - Минимальная температура - минимум температуры воздуха на высоте 2 м над землей.
Tmax - Максимальная температура - максимум температуры воздуха на высоте 2 м над землей.
R - Количество осадков - Количество выпавших осадков за период времени, мм. При наведении курсора мыши на число - период времени, за который выпало указанное количество осадков.
R24 - Количество осадков - Количество выпавших осадков за 24 часа, мм.
S - Снежный покров - Высота снежного покрова, см. При наведении курсора мыши на число - состояние снежного покрова и степень покрытия местности в баллах.